Regional Weather Roundup
Issued by NWS Northern Indiana

Home | Current Version | Previous Version | Graphics & Text | Print | Product List | Glossary On
Versions: 1 2 3 4 5 6 7 8 9 10 11 12 13 14 15 16 17 18 19 20 21 22 23 24 25 26 27 28 29 30 31 32 33 34 35 36 37 38 39 40 41 42 43 44 45 46 47 48 49 50
000
ASUS43 KIWX 281901
RWRIWX

KIWX WEATHER ROUNDUP
NATIONAL WEATHER SERVICE NORTHERN INDIANA
300 PM EDT SUN MAY 28 2017

NOTE: "FAIR" INDICATES FEW OR NO CLOUDS BELOW 12,000 FEET WITH NO
SIGNIFICANT WEATHER AND/OR OBSTRUCTIONS TO VISIBILITY.

* THESE STATIONS ARE NOT UNDER NWS QUALITY CONTROL. THEY ALSO MAY NOT
  REPORT WEATHER SUCH AS PRECIPITATION OR FOG.

INZ001>027-282000-
NORTHERN INDIANA

CITY           SKY/WX    TMP DP  RH WIND       PRES   REMARKS
GARY*          PTSUNNY   66  57  72 NE7       29.74F
MICHIGAN CITY* PTSUNNY   68  61  77 N6        29.74S
SOUTH BEND     MOSUNNY   75  64  68 N14       29.71F
GOSHEN         TSTM      72  66  81 SW5       29.69F
MONTICELLO*    PTSUNNY   74  66  77 W9        29.71F
ANGOLA*        CLOUDY    73  70  88 NW5       29.68F
FORT WAYNE     CLOUDY    72  65  78 SW14      29.71F

$$
INZ028>050-282000-
CENTRAL INDIANA

CITY           SKY/WX    TMP DP  RH WIND       PRES   REMARKS
LAFAYETTE      PTSUNNY   73  66  78 W10       29.71F
KOKOMO*        CLOUDY    76  66  71 W14       29.73S
MUNCIE*        PTSUNNY   77  61  57 W15       29.74F
INDIANAPOLIS   CLOUDY    75  61  61 W16       29.75F

$$
MIZ043>046-050>051-056>058-064>065-071>073-077>080-282000-
SOUTHWEST LOWER MICHIGAN

CITY           SKY/WX    TMP DP  RH WIND       PRES   REMARKS
BATTLE CREEK   MOSUNNY   77  60  55 W6        29.69F
BENTON HARBOR  MOSUNNY   71  58  63 N7        29.71F
COLDWATER*     HVY RAIN  71  65  80 CALM      29.70R
HILLSDALE*     LGT RAIN  73  63  68 S5        29.69F
HOLLAND        PTSUNNY   73  58  59 CALM      29.70F
GRAND RAPIDS   CLOUDY    74  62  66 NW13      29.69F
KALAMAZOO      MOSUNNY   77  58  51 CALM      29.69F
STURGIS*       LGT RAIN  66  62  85 CALM      29.69F
THREE RIVERS*  FAIR      79  60  53 W7        29.69F

$$
OHZ001>008-015>018-024>025-282000-
NORTHWEST OHIO

CITY           SKY/WX    TMP DP  RH WIND       PRES   REMARKS
DEFIANCE       PTSUNNY   73  64  73 SE6       29.68F
FINDLAY        CLOUDY    75  65  70 S5        29.69F
TOLEDO EXPRESS PTSUNNY   73  67  81 SE8       29.69F
TOLEDO METCALF CLOUDY    74  64  71 SE3       29.70F
LIMA           PTSUNNY   76  64  66 SW18G25   29.71F

$$
AND FOR LAKE MICHIGAN COASTAL AND OPEN LAKE BUOY OBSERVATIONS

STATION/POSITION TEMP    WIND        PRES    VSBY  WAVE
                 AIR SEA DIR/SP/G                  HT/PER
                 (F)     (DEG/KT/KT) (MB)    (MI)  (FT/S)
CALUMET HARBOR    58      50/  5/  7 1006.5F
MICHIGAN CITY     56      20/  6/  7   N/A
BURNS HARBOR      59      70/  9/ 10 1007.5F
SOUTH LAKE BUOY   51 48   20/  8/ 10 1007.2          0
4 MI NW BRIDGMAN  59 59   60/  8/ 10 1006.8F         1/ 2
MICHIGAN CITY     56 56   80/  6/  8   N/A           1/ 2

$$
&&




USA.gov is the U.S. government's official web portal to all federal, state and local government web resources and services.